Total_Precipitation_Accumulation
0.36 0.43 0.64 0.62 0.46 0.40 0.40 0.40 0.44 0.39 0.34 0.36 0.36 0.34 0.28 0.23 0.21 0.20 0.22 0.24 0.28 0.36 0.42 0.48 0.53 0.54 0.61 0.67 0.76 0.79 0.82 0.88 1.04 1.29 1.50 1.54 1.54 1.58 1.77 1.87 1.83 1.46 1.38
0.16 0.28 0.50 0.52 0.41 0.39 0.37 0.36 0.37 0.33 0.32 0.31 0.34 0.36 0.33 0.30 0.26 0.25 0.26 0.28 0.34 0.40 0.41 0.41 0.47 0.47 0.51 0.57 0.65 0.69 0.79 0.94 1.34 1.69 1.87 1.79 1.75 1.79 1.87 1.83 1.81 1.45 1.29
0.10 0.15 0.26 0.41 0.38 0.36 0.33 0.33 0.33 0.30 0.30 0.28 0.28 0.31 0.32 0.30 0.25 0.25 0.28 0.32 0.39 0.42 0.40 0.45 0.49 0.47 0.50 0.56 0.63 0.65 0.81 1.12 1.67 2.22 2.37 2.01 1.66 1.84 1.89 1.84 1.66 1.30 1.10
0.09 0.11 0.13 0.27 0.31 0.30 0.29 0.29 0.29 0.27 0.23 0.22 0.22 0.26 0.29 0.30 0.26 0.26 0.29 0.34 0.40 0.40 0.42 0.50 0.47 0.48 0.47 0.50 0.61 0.78 0.99 1.22 1.66 2.08 2.22 1.64 1.33 1.38 1.56 1.44 1.28 1.10 0.88
0.14 0.12 0.16 0.21 0.21 0.23 0.24 0.25 0.27 0.26 0.23 0.19 0.20 0.25 0.28 0.29 0.30 0.30 0.34 0.37 0.42 0.44 0.45 0.46 0.45 0.48 0.49 0.51 0.63 0.86 1.12 1.36 1.63 1.85 1.61 1.83 1.77 1.42 1.30 1.18 1.14 0.93 0.71
0.16 0.12 0.17 0.21 0.18 0.18 0.20 0.21 0.24 0.23 0.21 0.22 0.22 0.25 0.27 0.30 0.32 0.32 0.34 0.37 0.44 0.49 0.51 0.51 0.50 0.51 0.51 0.52 0.62 0.88 1.14 1.45 1.61 1.19 0.95 1.32 1.36 1.27 1.19 1.14 1.03 0.86 0.68
0.19 0.14 0.17 0.26 0.23 0.20 0.21 0.24 0.24 0.22 0.20 0.21 0.22 0.25 0.30 0.32 0.33 0.35 0.36 0.40 0.45 0.48 0.48 0.51 0.51 0.50 0.54 0.57 0.63 0.84 1.19 1.50 1.41 0.94 0.79 1.04 1.02 1.06 1.15 1.16 1.07 0.88 0.69
0.29 0.20 0.23 0.32 0.32 0.29 0.28 0.30 0.30 0.25 0.23 0.24 0.25 0.28 0.32 0.34 0.36 0.40 0.42 0.45 0.45 0.49 0.48 0.45 0.46 0.45 0.46 0.60 0.72 0.83 1.10 1.21 1.00 0.84 0.76 0.85 0.74 1.00 1.14 1.06 0.98 0.87 0.76
0.54 0.41 0.37 0.36 0.35 0.35 0.39 0.39 0.36 0.31 0.30 0.30 0.31 0.31 0.32 0.32 0.36 0.41 0.50 0.52 0.48 0.50 0.50 0.48 0.47 0.51 0.53 0.62 0.72 0.88 1.11 1.27 1.12 1.04 0.81 0.77 0.71 1.03 1.26 1.08 0.90 0.78 0.77
1.16 0.92 0.69 0.48 0.50 0.43 0.41 0.44 0.43 0.37 0.35 0.35 0.35 0.33 0.38 0.45 0.50 0.58 0.61 0.58 0.57 0.62 0.65 0.64 0.63 0.66 0.74 0.79 0.88 1.02 1.19 1.16 1.10 1.30 1.06 0.74 0.80 1.12 1.34 1.36 1.15 0.95 0.87
1.50 1.32 1.18 0.94 0.70 0.68 0.60 0.52 0.61 0.57 0.55 0.58 0.66 0.62 0.70 0.91 0.93 1.02 0.89 0.82 0.86 0.96 1.04 1.05 1.08 1.09 1.07 0.99 1.11 1.31 1.23 1.17 1.39 1.56 1.25 0.92 1.05 1.43 1.58 1.65 1.49 1.34 1.22
1.53 1.36 1.36 1.30 1.00 0.87 0.79 0.96 1.19 1.09 1.09 1.10 1.28 1.16 1.36 1.48 1.31 0.95 1.03 1.15 1.27 1.53 1.65 1.71 1.78 1.69 1.51 1.35 1.48 1.52 1.29 1.35 1.50 1.35 1.17 1.08 1.21 1.57 1.84 1.90 1.75 1.53 1.44
1.77 1.64 1.37 1.48 1.30 1.22 1.27 1.33 1.45 1.54 1.53 1.49 1.56 1.58 1.77 1.64 1.39 1.24 1.45 1.75 1.91 2.05 2.22 2.35 2.36 2.04 2.03 2.18 2.19 1.96 1.80 1.69 1.73 1.46 1.10 1.23 1.38 1.69 1.95 2.03 1.88 1.74 1.59
2.05 1.95 1.83 1.81 1.77 1.71 1.67 1.57 1.45 1.29 1.32 1.45 1.58 1.63 1.80 1.84 1.86 1.83 1.90 1.99 2.14 2.44 2.79 2.78 2.81 2.70 2.77 2.65 2.45 2.39 2.22 1.92 2.06 2.06 1.55 1.47 1.59 1.90 2.08 2.09 1.97 1.87 1.83
2.76 2.60 2.59 2.66 2.43 2.15 1.98 1.64 1.34 1.21 1.10 1.20 1.32 1.42 1.48 1.72 1.92 1.93 1.78 1.81 1.81 2.04 2.45 2.86 2.89 3.11 3.18 2.90 2.47 2.29 2.37 2.23 2.17 2.08 1.70 1.78 1.98 2.03 2.03 1.99 1.98 1.92 1.93
3.76 3.57 3.37 3.41 2.93 2.52 2.20 1.78 1.51 1.28 1.22 1.16 1.09 1.14 1.36 1.52 1.73 1.67 1.65 1.78 1.85 1.83 1.98 2.38 2.63 2.93 2.96 2.65 2.24 2.11 2.11 2.14 2.02 1.98 1.73 1.75 1.87 1.76 1.78 1.98 2.17 2.20 2.13
4.88 4.47 3.86 3.58 3.23 2.90 2.57 2.06 1.64 1.42 1.19 1.15 1.08 1.07 1.14 1.27 1.43 1.41 1.49 1.47 1.54 1.54 1.57 1.73 1.97 2.21 2.23 2.16 2.12 2.14 2.09 2.00 1.81 1.79 1.82 1.75 1.56 1.60 1.67 1.80 1.96 2.07 2.24
5.68 5.06 4.32 3.61 3.61 3.41 3.02 2.33 1.80 1.48 1.28 1.12 1.05 0.96 0.91 0.94 0.94 0.99 1.05 1.04 1.02 0.97 1.04 1.27 1.39 1.57 1.82 1.98 2.09 2.05 2.02 2.05 1.84 1.77 1.74 1.70 1.68 1.46 1.66 1.75 1.74 1.79 2.05
5.86 5.64 4.97 4.73 4.45 3.79 3.00 2.33 1.86 1.55 1.37 1.19 1.10 0.98 0.91 0.80 0.75 0.81 0.88 0.94 0.75 0.73 0.76 0.76 1.02 1.20 1.43 1.58 1.47 1.61 1.61 1.66 1.57 1.39 1.39 1.28 1.44 1.42 1.50 1.54 1.60 1.58 1.79
4.82 4.71 4.62 4.67 4.16 3.54 2.87 2.31 1.94 1.66 1.38 1.18 1.09 1.06 0.99 0.88 0.79 0.85 0.77 0.73 0.63 0.69 0.80 0.90 1.08 1.09 1.09 1.20 1.11 1.31 1.27 1.19 1.22 1.15 1.04 1.04 1.09 1.02 1.13 1.26 1.32 1.19 1.49
3.24 3.34 3.62 3.82 3.50 2.98 2.53 1.99 1.71 1.56 1.36 1.20 1.09 0.97 0.96 0.88 0.91 0.91 0.76 0.83 0.73 0.73 0.76 0.80 0.90 0.93 0.89 0.87 1.16 1.38 1.18 0.93 0.91 0.82 0.81 0.92 0.98 1.00 1.16 1.28 1.26 1.26 1.19
2.33 2.64 2.99 3.22 3.06 2.50 2.22 1.96 1.77 1.62 1.44 1.35 1.25 1.08 0.92 0.86 0.85 0.77 0.88 0.75 0.74 0.81 0.82 0.82 0.90 0.90 0.82 0.79 1.06 1.33 1.22 1.25 1.16 0.66 0.74 0.84 0.91 1.06 1.11 1.09 1.16 1.29 1.16
2.04 2.19 2.23 2.47 2.66 2.39 2.22 2.12 1.97 1.82 1.57 1.49 1.41 1.21 0.92 0.81 0.80 0.80 0.77 0.76 0.88 0.72 0.87 0.99 0.95 0.93 0.90 0.80 0.80 1.02 1.08 1.09 1.02 0.88 0.73 0.71 0.80 0.99 1.04 1.08 1.05 1.17 1.22
1.43 1.70 1.94 2.18 2.33 2.24 2.12 1.89 1.69 1.47 1.31 1.24 1.24 1.25 1.10 0.95 0.83 0.81 0.76 0.81 0.89 0.76 0.98 0.80 0.80 0.91 0.92 0.79 0.73 0.64 0.66 0.80 0.92 0.99 0.87 0.70 0.73 0.82 0.86 0.81 0.87 1.05 1.10
0.98 1.37 1.78 2.09 2.30 2.18 1.88 1.70 1.66 1.53 1.43 1.35 1.27 1.34 1.20 1.10 0.96 0.84 0.83 0.86 0.82 0.76 0.83 0.87 1.01 0.93 0.88 0.82 0.74 0.66 0.69 0.65 0.60 0.71 0.85 0.86 0.83 0.65 0.60 0.67 0.78 0.92 0.97
0.79 1.02 1.29 1.60 1.86 1.88 1.72 1.62 1.61 1.59 1.55 1.41 1.19 1.14 1.06 1.03 1.00 0.96 0.98 0.96 0.87 0.78 0.80 0.83 0.93 0.94 0.99 1.03 0.88 0.73 0.74 0.68 0.61 0.65 0.63 0.64 0.72 0.59 0.54 0.58 0.66 0.77 0.85